Dewpoint
74 74 74 73 73 73 73 72 72 73 73 73 72 72 72 69 69 69 68 68 69 68 67 68 69 68 68 69 68 69 68 67 68 68 67 68 66 66 67 66 66 65
74 74 74 73 73 73 74 73 72 73 73 73 72 72 71 70 69 69 68 67 69 69 68 67 70 68 68 67 68 67 67 67 66 69 67 67 67 67 67 67 65 66
74 74 74 73 73 73 73 73 73 73 73 73 72 72 70 71 70 69 68 67 67 68 69 67 69 69 69 67 67 66 67 66 65 68 67 66 67 66 66 67 66 66
74 74 74 74 73 73 73 74 74 73 73 73 72 72 70 70 71 68 68 70 66 67 69 68 67 69 69 68 67 66 66 67 67 67 67 67 67 66 66 67 67 66
74 74 74 74 74 74 73 74 73 73 73 73 72 71 71 69 70 69 68 68 67 66 68 68 68 68 68 68 67 66 66 67 67 67 68 67 67 67 67 66 66 66
74 74 74 74 74 74 73 73 73 73 73 73 72 72 70 69 69 69 68 68 67 66 67 68 68 68 68 67 68 66 66 66 66 67 67 68 66 67 67 67 66 65
74 74 74 74 74 74 73 73 73 73 73 73 72 72 70 69 68 69 68 68 67 67 67 67 68 68 68 67 68 67 66 66 66 67 66 67 67 66 66 65 66 65
74 73 74 74 73 73 73 73 73 73 73 73 72 72 70 69 68 68 68 68 67 67 67 67 68 68 67 67 67 67 66 66 66 66 66 66 66 66 66 65 65 65
74 73 74 74 73 73 73 73 73 73 73 73 72 71 71 70 69 68 68 68 68 67 67 67 68 68 67 67 67 67 66 66 66 66 65 65 65 64 65 66 66 65
74 74 73 73 73 73 73 73 73 73 73 73 73 72 71 70 69 68 68 68 67 67 67 67 67 67 67 67 67 67 66 66 66 66 66 65 65 64 64 65 65 65
73 73 73 73 73 72 72 72 72 72 73 73 73 72 71 70 70 69 68 68 67 67 67 67 67 67 67 67 67 67 67 66 66 65 66 65 65 65 67 65 65 64
73 73 73 73 73 72 72 72 72 72 72 73 73 72 71 70 70 69 69 68 67 67 67 67 68 67 67 67 67 67 67 66 66 65 65 66 65 65 65 65 65 64
73 73 73 73 73 73 72 72 71 71 72 72 72 72 71 70 70 69 70 69 68 67 67 66 67 68 67 67 67 67 67 66 66 65 65 65 65 65 65 65 65 65
73 73 74 74 73 73 73 72 71 71 72 72 72 72 71 70 70 69 69 69 68 67 67 67 67 67 67 67 67 67 67 67 66 65 65 64 65 65 64 65 65 66
73 73 74 74 74 73 73 72 72 71 72 72 72 72 71 70 70 70 69 69 69 68 67 67 67 67 67 66 66 67 67 66 66 65 65 64 64 64 64 64 65 65
73 73 73 74 74 73 73 73 72 71 72 72 72 71 71 71 70 70 69 69 68 68 68 67 67 67 66 63 63 66 66 66 66 65 64 64 64 64 64 65 64 64
73 73 73 73 74 74 73 73 73 72 72 72 72 72 71 71 71 70 69 69 68 67 67 68 67 66 62 61 62 63 65 66 65 65 65 64 64 64 64 64 64 64
73 73 73 73 74 74 74 73 73 72 72 72 72 72 71 71 71 70 70 69 68 67 67 67 67 63 60 61 62 62 64 66 65 65 65 65 64 64 64 64 65 65
74 74 73 73 73 74 74 74 73 72 72 72 72 72 72 71 71 70 69 69 68 67 66 66 66 62 60 60 61 61 62 65 66 66 65 65 65 65 65 66 66 66
74 74 74 73 74 74 74 74 73 73 72 72 73 73 72 71 70 69 68 68 68 67 66 66 66 61 59 59 60 60 61 63 66 65 65 65 66 67 67 66 65 66
74 74 74 74 74 74 74 74 73 73 73 73 73 72 72 71 70 68 68 68 67 67 66 66 66 58 58 58 58 58 59 62 65 66 66 66 66 66 66 66 67 66
75 75 75 75 75 75 74 74 74 73 73 73 73 73 72 71 69 68 67 67 67 66 66 66 66 57 57 57 58 58 61 64 65 65 65 65 64 65 66 67 65 65
76 75 75 75 75 74 74 74 74 74 73 73 72 72 71 70 68 67 67 67 66 66 66 66 62 57 56 56 57 59 62 64 64 64 64 64 63 64 65 64 65 65
76 76 75 75 75 74 74 74 74 74 74 74 72 72 70 69 68 67 67 67 66 66 66 66 61 57 55 55 57 59 60 60 62 64 64 64 65 65 65 66 67 67
76 76 75 75 74 74 74 74 74 74 74 74 73 72 71 70 68 67 67 67 66 66 66 64 61 58 55 55 56 56 59 60 63 64 64 65 66 65 65 65 65 68
76 75 75 74 74 73 73 73 74 74 74 74 73 72 71 70 68 68 67 67 67 67 66 65 63 61 58 55 54 54 56 63 65 65 64 65 66 64 63 62 63 64